SL-8 DEB, 1335

Orbit data source: Space-Track

SL-8 DEB, 1335 is space debris in LEO originally from a launch on Mon, 15 Mar 1965 UTC launched from the Tyuratam Missile And Space Complex (TTMTR). Debris objects in space refer to the collection of defunct objects orbiting the Earth. Examples of debris include non-operational satellites, rocket bodies, and fragments generated from explosions, collisions, or faulty payload assembly.

Loading next visibility...
Identifier
1335, 1965-020E
Orbit
LEO
Country
Flag of CISCIS
Related business
Manufacturer
Unknown
Mission
Spacecraft
Bus & Motor
Unknown
Mass
Unknown
Launch date (UTC)
1965-03-15 (61 years ago)
Launch vehicle
Unknown
Launch site
Tyuratam Missile And Space Complex (TTMTR)
Object type
Payload
Rocket body
Debris
Shape & HBR
Unknown shape, 0.1 m
Radar Cross Section
Medium (>0.1 m² and <1 m²)

Expand to show TLE details & history
Last TLE update: 12 hours ago

TLE from 12 hours ago
0 SL-8 DEB
1 01335U 65020E   25297.29251523  .00003411  00000-0  98822-3 0  9990
2 01335  56.0738  59.2155 0532606  99.2987 266.8594 13.86535555977252
Epoch: 2025-10-24T07:01Z
TLE epoch observation values (Epoch: 2025-10-24T07:01:13.315Z)
Latitude
0.00002°
Longitude
-79.02947°
Altitude
983.863 km
Speed
7.34 km/s
True Right ascension
03h 56m 51s
True Declination
0° 00' 00"
Sunlit
Object was in full shadow at epoch
Visualization orbit readout
Latitude
Unknown
Longitude
Unknown
Altitude
Unknown
Speed
Unknown
Apparent Right ascension
Unknown
Apparent Declination
Unknown
Sunlit
N/A
Visualization observer readout
Local Sidereal Time
14:27:29
Azimuth
Unknown
Elevation
Unknown
Doppler factor
Unknown
Orbital elements
Apogee altitude
1,330.404 km
Perigee altitude
550.803 km
Semi-major axis
7,318.741 km
Eccentricity
0.05326
Inclination
56.0738°
RAAN
59.2155°
Arg. of periapsis
99.2987°
True anomaly
260.79882°
Mean anomaly
266.8594°
Eccentric anomaly
263.8255°
Mean motion
3.46648 °/min
Orbital period
103.85 mins
BSTAR
0.00098822
Loading maneuver chart data...
Computing Atmospheric mass density...

Documentation

Showing up to 5 results
|